[[{"header":{"parameterUnit":"m.s-1","parameterCategory":1,"la1":30.2991,"la2":30.254,"lo1":-89.0895,"lo2":-89.0444,"dy":0.0017,"dx":0.0017,"nx":28,"ny":28,"refTime":"2023-07-30T21:00:00:Z","depth":0,"parameterNumber":2,"parameterNumberName":"U-component_of_WINDS"},"data":[0,0,0,0,0,0,0,0,0,0,0,0,0,0,0,0,0,0,0,0,0,0,0,0,0,0,0,0,0,0,0,0,0,0,0,0,0,0,0,0,0,0,0,0,0,0,0,0,0,0,0,0,0,0,0,0,0,0,1.8094,1.8094,0,1.8098,1.8098,1.8098,1.8071,1.8071,1.807,1.8069,1.8073,1.8073,1.8074,0,0,0,0,0,0,0,0,0,0,0,0,0,1.8064,1.8065,1.8094,1.8094,1.8094,1.8098,1.8098,1.8098,1.8072,1.8071,1.807,1.8069,1.8072,1.8073,1.8074,0,0,0,0,0,0,0,0,0,0,0,0,0,1.8073,1.8065,1.8094,1.8081,1.808,1.8098,1.8098,1.8098,1.8072,1.8071,1.807,1.8068,1.8072,1.8073,1.8074,1.8104,0,0,1.8078,1.8079,0,0,0,0,0,0,0,0,1.8073,1.8074,1.8083,1.8082,1.8081,1.8083,1.8089,1.81,1.8072,1.8075,1.8069,1.8068,1.8077,1.8078,1.8081,1.8104,1.8105,1.8078,1.8079,1.8079,1.808,0,0,0,0,0,0,0,1.8072,1.8074,1.8095,1.8083,1.8082,1.8076,1.8076,1.8091,1.8082,1.8075,1.8073,1.8074,1.8076,1.808,1.8081,1.8105,1.8078,1.8079,1.808,1.808,1.8155,1.8156,0,0,0,0,0,0,1.8073,1.8074,1.8095,1.8096,1.8074,1.8077,1.8077,1.8084,1.8082,1.8081,1.8075,1.8072,1.8078,1.8079,1.8081,1.8117,1.8079,1.808,1.8081,1.8153,1.8155,1.8156,0,0,0,0,0,0,1.8073,1.8075,1.8095,1.8084,1.8086,1.8079,1.8086,1.8084,1.8088,1.8082,1.808,1.808,1.8078,1.8079,1.8099,1.8117,1.8081,1.8082,1.8152,1.8154,1.8156,1.8188,0,0,0,0,0,0,1.8072,1.8075,1.8086,1.8085,1.8087,1.8113,1.8087,1.8085,1.809,1.8087,1.8086,1.8085,1.8077,1.8097,1.81,1.8118,1.8083,1.815,1.8153,1.8155,1.8186,1.8191,1.8196,0,0,0,0,0,1.8071,1.8095,1.8087,1.809,1.8101,1.8114,1.8116,1.8106,1.8091,1.8103,1.8099,1.8085,1.8114,1.81,1.8103,1.8121,1.8149,1.8152,1.8155,1.8183,1.819,1.8196,0,0,0,0,0,0,1.8098,1.8094,1.8086,1.811,1.8113,1.811,1.8124,1.8113,1.8119,1.8116,1.8104,1.8104,1.8126,1.8125,1.8109,1.815,1.8129,1.8133,1.815,1.8156,1.8161,1.8161,1.8084,0,0,0,0,0,1.8107,1.8119,1.8115,1.8136,1.8138,1.8131,1.8136,1.8129,1.8131,1.8132,1.813,1.8133,1.8143,1.8149,1.8158,1.8185,1.8186,1.8199,1.8204,1.8209,1.8212,1.8228,1.8234,1.8166,1.8165,1.8165,0,0,1.8125,1.8125,1.8132,1.8142,1.8143,1.8156,1.8132,1.8146,1.8155,1.8134,1.8153,1.8152,1.8154,1.8179,1.8189,1.8178,1.8231,1.8212,1.8216,1.8217,1.8231,1.8238,1.8244,1.8167,1.8167,1.8167,0,0,1.8165,1.8165,1.8184,1.8187,1.8189,1.8185,1.8189,1.8188,1.8187,1.8206,1.8191,1.8202,1.8219,1.8222,1.8225,1.8268,1.8256,1.8272,1.8298,1.8314,1.8319,1.8324,1.8341,1.8347,1.8275,1.8275,1.8275,0,1.8187,1.8206,1.8195,1.8211,1.8216,1.8198,1.8218,1.822,1.8225,1.823,1.8218,1.824,1.824,1.8265,1.8276,1.8279,1.8285,1.8272,1.8319,1.8324,1.8328,1.8344,1.835,1.8277,1.8277,1.8276,1.8276,0,1.8234,1.8247,1.8262,1.8269,1.8275,1.8292,1.8285,1.8293,1.8285,1.8282,1.8302,1.8302,1.8311,1.8317,1.8309,1.8342,1.8335,1.8322,1.83,1.8337,1.8352,1.8357,1.828,1.8279,1.8278,1.8278,0,0,1.829,1.8292,1.8297,1.8301,1.8304,1.8314,1.8331,1.834,1.8348,1.8353,1.8367,1.8383,1.8371,1.8375,1.8367,1.8381,1.8417,1.8366,1.8366,1.8376,1.8455,1.8466,1.8473,1.8409,1.841,1.8411,1.8455,0,1.833,1.8359,1.8351,1.8381,1.8394,1.8378,1.8393,1.8397,1.8394,1.8405,1.8402,1.8414,1.8397,1.8399,1.8412,1.841,1.8433,1.8407,1.8423,1.8424,1.8424,1.848,1.8491,1.8533,1.8461,1.8461,1.8462,0,1.838,1.8388,1.8419,1.8421,1.8426,1.844,1.8449,1.8459,1.8463,1.8461,1.8467,1.8457,1.8474,1.8453,1.8477,1.846,1.8466,1.8466,1.8468,1.8469,1.8446,1.8484,1.8546,1.8552,1.8471,1.847,1.8469,0,1.8419,1.8437,1.8459,1.8462,1.8465,1.8475,1.8477,1.848,1.8487,1.8495,1.8499,1.8509,1.8514,1.8522,1.8515,1.85,1.8541,1.8519,1.854,1.8541,1.855,1.8549,1.8614,1.8553,1.8553,1.8553,1.8552,0,1.8465,1.8485,1.8477,1.849,1.8513,1.8503,1.8526,1.8526,1.8529,1.8542,1.8529,1.8542,1.8531,1.8544,1.8538,1.856,1.8562,1.8561,1.856,1.8563,1.8563,1.8567,1.8564,1.8554,1.8554,1.8554,1.8553,0,1.8512,1.8507,1.853,1.8532,1.8532,1.8549,1.855,1.8563,1.856,1.8578,1.8581,1.8577,1.8591,1.8585,1.8599,1.8595,1.8624,1.8618,1.8623,1.8622,1.8644,1.8642,1.8714,1.8723,1.8655,1.8656,1.8656,0,1.8542,1.8557,1.8561,1.8569,1.8572,1.8585,1.8593,1.8585,1.8593,1.86,1.8612,1.8625,1.8635,1.8658,1.8656,1.8667,1.8662,1.8686,1.8663,1.8667,1.8663,1.8663,1.8665,1.8691,1.8692,1.8692,1.8693,0,1.8595,1.8593,1.8604,1.8615,1.8625,1.8633,1.864,1.8647,1.864,1.865,1.8664,1.8672,1.8688,1.8701,1.8711,1.8713,1.8702,1.87,1.8706,1.871,1.8712,1.8712,1.8636,1.8699,1.8698,1.8698,1.8697,1.8697,1.8635,1.8649,1.8654,1.8668,1.8673,1.868,1.8692,1.8692,1.8704,1.8716,1.8711,1.8728,1.8733,1.8746,1.875,1.8763,1.8753,1.8761,1.8763,1.8766,1.8769,1.871,1.8765,1.8764,1.8764,1.8764,1.8764,0,1.8689,1.8692,1.8705,1.8716,1.8727,1.8716,1.8724,1.8734,1.8749,1.8755,1.8766,1.8783,1.8797,1.8797,1.8809,1.882,1.8815,1.8823,1.8823,1.8824,1.8776,1.8771,1.8827,1.8827,1.8827,1.8827,1.8827,1.8827,1.8718,1.8741,1.874,1.8766,1.8768,1.8786,1.8791,1.8798,1.8803,1.8824,1.8835,1.8835,1.8839,1.8852,1.8864,1.8863,1.8869,1.8879,1.8877,1.8833,1.8827,1.8821,1.8816,1.888,1.888,1.8923,1.8924,1.8924]},{"header":{"parameterUnit":"m.s-1","parameterCategory":1,"la1":30.2991,"la2":30.254,"lo1":-89.0895,"lo2":-89.0444,"dy":0.0017,"dx":0.0017,"nx":28,"ny":28,"refTime":"2023-07-30T21:00:00:Z","depth":0,"parameterNumber":3,"parameterNumberName":"V-component_of_WINDS"},"data":[0,0,0,0,0,0,0,0,0,0,0,0,0,0,0,0,0,0,0,0,0,0,0,0,0,0,0,0,0,0,0,0,0,0,0,0,0,0,0,0,0,0,0,0,0,0,0,0,0,0,0,0,0,0,0,0,0,0,-0.5317,-0.5317,0,-0.5338,-0.5338,-0.5338,-0.53,-0.5298,-0.5297,-0.5296,-0.532,-0.5321,-0.5323,0,0,0,0,0,0,0,0,0,0,0,0,0,-0.5249,-0.525,-0.5317,-0.5317,-0.5318,-0.5338,-0.5338,-0.5338,-0.53,-0.5298,-0.5297,-0.5295,-0.5319,-0.5321,-0.5323,0,0,0,0,0,0,0,0,0,0,0,0,0,-0.5275,-0.5251,-0.5317,-0.5301,-0.53,-0.5338,-0.5338,-0.5338,-0.53,-0.5298,-0.5296,-0.5295,-0.5318,-0.5321,-0.5324,-0.5379,0,0,-0.5332,-0.5333,0,0,0,0,0,0,0,0,-0.5274,-0.5278,-0.5303,-0.5302,-0.5301,-0.5314,-0.5322,-0.5352,-0.5301,-0.53,-0.5296,-0.5294,-0.532,-0.5322,-0.533,-0.538,-0.5381,-0.5332,-0.5334,-0.5335,-0.5336,0,0,0,0,0,0,0,-0.5272,-0.5277,-0.5325,-0.5303,-0.5302,-0.5294,-0.5296,-0.5328,-0.532,-0.53,-0.5297,-0.53,-0.5319,-0.5328,-0.533,-0.5381,-0.5332,-0.5335,-0.5336,-0.5337,-0.5481,-0.5483,0,0,0,0,0,0,-0.5272,-0.5275,-0.5325,-0.5326,-0.5282,-0.5297,-0.5299,-0.5312,-0.532,-0.5319,-0.5302,-0.5298,-0.5324,-0.5327,-0.5331,-0.5398,-0.5335,-0.5338,-0.5339,-0.5479,-0.5482,-0.5484,0,0,0,0,0,0,-0.527,-0.5276,-0.5324,-0.53,-0.5305,-0.53,-0.5315,-0.5313,-0.5322,-0.5321,-0.532,-0.5312,-0.5323,-0.5327,-0.5368,-0.5398,-0.5339,-0.5341,-0.5476,-0.548,-0.5483,-0.5532,0,0,0,0,0,0,-0.5268,-0.5276,-0.5296,-0.5301,-0.5307,-0.5359,-0.5317,-0.5315,-0.5327,-0.5322,-0.5331,-0.533,-0.5321,-0.5364,-0.5371,-0.5401,-0.5343,-0.5474,-0.5478,-0.5482,-0.5527,-0.5536,-0.5544,0,0,0,0,0,-0.5266,-0.5309,-0.5297,-0.5303,-0.5331,-0.5361,-0.5364,-0.5352,-0.5329,-0.535,-0.535,-0.533,-0.5394,-0.5368,-0.5376,-0.5407,-0.5472,-0.5477,-0.5481,-0.5524,-0.5534,-0.5544,0,0,0,0,0,0,-0.5308,-0.5309,-0.5296,-0.5341,-0.5351,-0.5354,-0.5379,-0.5364,-0.5381,-0.5377,-0.5362,-0.5365,-0.5409,-0.5412,-0.5383,-0.5463,-0.5429,-0.5436,-0.5459,-0.5469,-0.5477,-0.5476,-0.5346,0,0,0,0,0,-0.5322,-0.5345,-0.5345,-0.5385,-0.5391,-0.5385,-0.5397,-0.5387,-0.5397,-0.5402,-0.5404,-0.5416,-0.5439,-0.5454,-0.5475,-0.5528,-0.553,-0.5554,-0.5562,-0.5569,-0.5574,-0.5605,-0.5616,-0.55,-0.55,-0.55,0,0,-0.5352,-0.5355,-0.537,-0.5393,-0.54,-0.5426,-0.5388,-0.5416,-0.5436,-0.5406,-0.5445,-0.5448,-0.546,-0.5507,-0.5528,-0.5511,-0.5607,-0.5575,-0.558,-0.5582,-0.5611,-0.5622,-0.5632,-0.5503,-0.5503,-0.5502,0,0,-0.5419,-0.5424,-0.5458,-0.5466,-0.5477,-0.5473,-0.5482,-0.5488,-0.5488,-0.5527,-0.5506,-0.553,-0.5569,-0.5579,-0.559,-0.5665,-0.5648,-0.5672,-0.5715,-0.5745,-0.5754,-0.5763,-0.5791,-0.5801,-0.5678,-0.5678,-0.5678,0,-0.5455,-0.5491,-0.5478,-0.5508,-0.552,-0.5495,-0.5531,-0.554,-0.5557,-0.5567,-0.5547,-0.5598,-0.5604,-0.5655,-0.5674,-0.5682,-0.5693,-0.5671,-0.5754,-0.5762,-0.5769,-0.5796,-0.5807,-0.5681,-0.5681,-0.568,-0.568,0,-0.5536,-0.5562,-0.5589,-0.5607,-0.5621,-0.5654,-0.5648,-0.5665,-0.5655,-0.5654,-0.5695,-0.5702,-0.5725,-0.5737,-0.5727,-0.5787,-0.5777,-0.5756,-0.5722,-0.5784,-0.5809,-0.5819,-0.5685,-0.5684,-0.5683,-0.5683,0,0,-0.5628,-0.564,-0.565,-0.5659,-0.567,-0.5691,-0.5724,-0.5747,-0.5762,-0.5776,-0.5805,-0.584,-0.5822,-0.5834,-0.5826,-0.5852,-0.5914,-0.5829,-0.5829,-0.5845,-0.5983,-0.5999,-0.6011,-0.5903,-0.5905,-0.5906,-0.5982,0,-0.5696,-0.5752,-0.5743,-0.5798,-0.5823,-0.5801,-0.5831,-0.5842,-0.5843,-0.5866,-0.5867,-0.5892,-0.5866,-0.5873,-0.5898,-0.5901,-0.5941,-0.5895,-0.5931,-0.5932,-0.5929,-0.6023,-0.604,-0.6111,-0.5992,-0.5994,-0.5995,0,-0.5782,-0.58,-0.5857,-0.5867,-0.5878,-0.5904,-0.5925,-0.5947,-0.596,-0.5959,-0.5974,-0.5962,-0.5997,-0.5963,-0.6013,-0.5982,-0.5996,-0.6,-0.6003,-0.6006,-0.5967,-0.603,-0.6133,-0.6145,-0.601,-0.6009,-0.6008,0,-0.5845,-0.5883,-0.5923,-0.5931,-0.5944,-0.5963,-0.597,-0.5981,-0.5996,-0.6015,-0.6026,-0.6049,-0.6062,-0.6081,-0.6076,-0.6051,-0.6128,-0.6093,-0.613,-0.613,-0.6147,-0.6146,-0.6254,-0.6155,-0.6155,-0.6155,-0.6154,0,-0.5922,-0.5959,-0.5952,-0.5977,-0.6018,-0.6008,-0.605,-0.6054,-0.6065,-0.6092,-0.6074,-0.61,-0.6092,-0.6118,-0.6114,-0.6157,-0.6163,-0.6165,-0.6163,-0.6166,-0.6166,-0.6176,-0.6171,-0.6158,-0.6157,-0.6156,-0.6156,0,-0.5999,-0.5996,-0.6038,-0.6047,-0.6051,-0.6081,-0.609,-0.6114,-0.6114,-0.6148,-0.6156,-0.6157,-0.6186,-0.6184,-0.6217,-0.6215,-0.6269,-0.6261,-0.6264,-0.6263,-0.63,-0.6297,-0.6419,-0.6436,-0.6325,-0.6326,-0.6327,0,-0.6048,-0.6076,-0.6089,-0.6105,-0.6113,-0.614,-0.6155,-0.6148,-0.6165,-0.6184,-0.6207,-0.6235,-0.6257,-0.6307,-0.6311,-0.6338,-0.6331,-0.6372,-0.6335,-0.6338,-0.6333,-0.6332,-0.6336,-0.638,-0.6381,-0.6382,-0.6383,0,-0.6137,-0.6135,-0.6157,-0.6181,-0.62,-0.6218,-0.6234,-0.6249,-0.6244,-0.6264,-0.6295,-0.6312,-0.6347,-0.6376,-0.6402,-0.641,-0.6397,-0.6395,-0.6405,-0.6408,-0.6409,-0.6411,-0.6285,-0.6392,-0.6391,-0.639,-0.639,-0.6389,-0.6202,-0.6227,-0.6241,-0.6268,-0.6279,-0.6296,-0.632,-0.6324,-0.6349,-0.6376,-0.6371,-0.6406,-0.6422,-0.6454,-0.6465,-0.6494,-0.6479,-0.6493,-0.6497,-0.6501,-0.6506,-0.6405,-0.6498,-0.6498,-0.6498,-0.6498,-0.6497,0,-0.6291,-0.63,-0.6324,-0.6348,-0.637,-0.6355,-0.6374,-0.6393,-0.6424,-0.644,-0.6462,-0.6499,-0.6528,-0.6536,-0.6564,-0.6585,-0.658,-0.6593,-0.6592,-0.6595,-0.6517,-0.6506,-0.6597,-0.6597,-0.6597,-0.6597,-0.6597,-0.6597,-0.634,-0.6382,-0.6382,-0.6431,-0.6439,-0.6472,-0.6484,-0.65,-0.6513,-0.6555,-0.6579,-0.6583,-0.6597,-0.6627,-0.6653,-0.6655,-0.6667,-0.6683,-0.6682,-0.661,-0.66,-0.659,-0.658,-0.6685,-0.6686,-0.6758,-0.6759,-0.6759]}]]